Time,TemperatureF,DewpointF,PressureIn,WindDirection,WindDirectionDegrees,WindSpeedMPH,WindSpeedGustMPH,Humidity,HourlyPrecipIn,Conditions,Clouds,dailyrainin,SoftwareType,DateUTC
2013-01-22 00:03:00,27.0,26.0,29.71,ESE,113,0.0,0.0,96,0.00,,,0.00,WUHU216HW,2013-01-22 08:03:00,
2013-01-22 00:08:00,27.0,26.0,29.71,ESE,113,0.0,0.0,96,0.00,,,0.00,WUHU216HW,2013-01-22 08:08:00,
2013-01-22 00:13:00,27.0,26.0,29.71,ESE,113,0.0,0.0,96,0.00,,,0.00,WUHU216HW,2013-01-22 08:13:00,
2013-01-22 00:18:00,26.8,25.8,29.70,ESE,113,0.0,0.0,96,0.00,,,0.00,WUHU216HW,2013-01-22 08:18:00,
2013-01-22 00:23:00,26.6,25.7,29.70,ESE,113,0.0,0.0,96,0.00,,,0.00,WUHU216HW,2013-01-22 08:23:00,
2013-01-22 00:28:00,26.6,25.7,29.70,ESE,113,0.0,0.0,96,0.00,,,0.00,WUHU216HW,2013-01-22 08:28:00,
2013-01-22 00:33:00,26.6,25.7,29.70,ESE,113,0.0,0.0,96,0.00,,,0.00,WUHU216HW,2013-01-22 08:33:00,
2013-01-22 00:38:00,26.5,25.5,29.70,ESE,113,0.0,0.0,96,0.00,,,0.00,WUHU216HW,2013-01-22 08:38:00,
2013-01-22 00:43:00,26.3,25.3,29.70,ESE,113,0.0,0.0,96,0.00,,,0.00,WUHU216HW,2013-01-22 08:43:00,
2013-01-22 00:48:00,26.3,25.3,29.70,ESE,113,0.0,0.0,96,0.00,,,0.00,WUHU216HW,2013-01-22 08:48:00,
2013-01-22 00:53:00,26.3,25.3,29.70,ESE,113,0.0,0.0,96,0.00,,,0.00,WUHU216HW,2013-01-22 08:53:00,
2013-01-22 00:58:00,26.3,25.3,29.70,ESE,113,0.0,0.0,96,0.00,,,0.00,WUHU216HW,2013-01-22 08:58:00,
2013-01-22 01:03:00,26.1,25.1,29.70,ESE,113,0.0,0.0,96,0.00,,,0.00,WUHU216HW,2013-01-22 09:03:00,
2013-01-22 01:08:00,25.9,24.9,29.70,ESE,113,0.0,0.0,96,0.00,,,0.00,WUHU216HW,2013-01-22 09:08:00,
2013-01-22 01:13:00,25.9,24.9,29.69,ESE,113,0.0,0.0,96,0.00,,,0.00,WUHU216HW,2013-01-22 09:13:00,
2013-01-22 01:18:00,25.7,24.8,29.69,ESE,113,0.0,0.0,96,0.00,,,0.00,WUHU216HW,2013-01-22 09:18:00,
2013-01-22 01:23:00,25.6,24.6,29.69,ESE,113,0.0,0.0,96,0.00,,,0.00,WUHU216HW,2013-01-22 09:23:00,
2013-01-22 01:28:00,25.6,24.6,29.69,ESE,113,0.0,0.0,96,0.00,,,0.00,WUHU216HW,2013-01-22 09:28:00,
2013-01-22 01:33:00,25.4,24.4,29.69,ESE,113,0.0,0.0,96,0.00,,,0.00,WUHU216HW,2013-01-22 09:33:00,
2013-01-22 01:38:00,25.4,24.4,29.69,ESE,113,0.0,0.0,96,0.00,,,0.00,WUHU216HW,2013-01-22 09:38:00,
2013-01-22 01:43:00,25.2,24.2,29.69,ESE,113,0.0,0.0,96,0.00,,,0.00,WUHU216HW,2013-01-22 09:43:00,
2013-01-22 01:48:00,25.2,24.2,29.70,ESE,113,0.0,0.0,96,0.00,,,0.00,WUHU216HW,2013-01-22 09:48:00,
2013-01-22 01:53:00,25.0,24.0,29.70,ESE,113,0.0,0.0,96,0.00,,,0.00,WUHU216HW,2013-01-22 09:53:00,
2013-01-22 01:58:00,24.8,23.9,29.69,ESE,113,0.0,0.0,96,0.00,,,0.00,WUHU216HW,2013-01-22 09:58:00,
2013-01-22 02:03:00,24.8,23.9,29.70,ESE,113,0.0,0.0,96,0.00,,,0.00,WUHU216HW,2013-01-22 10:03:00,
2013-01-22 02:08:00,24.8,23.9,29.70,ESE,113,0.0,0.0,96,0.00,,,0.00,WUHU216HW,2013-01-22 10:08:00,
2013-01-22 02:13:00,24.8,23.9,29.70,ESE,113,0.0,0.0,96,0.00,,,0.00,WUHU216HW,2013-01-22 10:13:00,
2013-01-22 02:18:00,24.8,23.9,29.70,ESE,113,0.0,0.0,96,0.00,,,0.00,WUHU216HW,2013-01-22 10:18:00,
2013-01-22 02:23:00,24.8,23.9,29.70,ESE,113,0.0,0.0,96,0.00,,,0.00,WUHU216HW,2013-01-22 10:23:00,
2013-01-22 02:28:00,24.8,23.9,29.70,ESE,113,0.0,0.0,96,0.00,,,0.00,WUHU216HW,2013-01-22 10:28:00,
2013-01-22 02:33:00,24.8,23.9,29.70,ESE,113,0.0,0.0,96,0.00,,,0.00,WUHU216HW,2013-01-22 10:33:00,
2013-01-22 02:38:00,24.8,23.9,29.70,ESE,113,0.0,0.0,96,0.00,,,0.00,WUHU216HW,2013-01-22 10:38:00,
2013-01-22 02:43:00,24.7,23.7,29.70,ESE,113,0.0,0.0,96,0.00,,,0.00,WUHU216HW,2013-01-22 10:43:00,
2013-01-22 02:48:00,24.3,23.3,29.69,ESE,113,0.0,0.0,96,0.00,,,0.00,WUHU216HW,2013-01-22 10:48:00,
2013-01-22 02:53:00,24.3,23.3,29.69,ESE,113,0.0,0.0,96,0.00,,,0.00,WUHU216HW,2013-01-22 10:53:00,
2013-01-22 02:58:00,24.1,22.9,29.69,ESE,113,0.0,0.0,95,0.00,,,0.00,WUHU216HW,2013-01-22 10:58:00,
2013-01-22 03:04:00,24.1,22.9,29.68,ESE,113,0.0,0.0,95,0.00,,,0.00,WUHU216HW,2013-01-22 11:04:00,
2013-01-22 03:09:00,24.1,22.9,29.68,ESE,113,0.0,0.0,95,0.00,,,0.00,WUHU216HW,2013-01-22 11:09:00,
2013-01-22 03:14:00,24.3,23.3,29.68,ESE,113,0.0,0.0,96,0.00,,,0.00,WUHU216HW,2013-01-22 11:14:00,
2013-01-22 03:19:00,24.1,22.9,29.68,ESE,113,0.0,0.0,95,0.00,,,0.00,WUHU216HW,2013-01-22 11:19:00,
2013-01-22 03:24:00,24.3,23.3,29.68,ESE,113,0.0,0.0,96,0.00,,,0.00,WUHU216HW,2013-01-22 11:24:00,
2013-01-22 03:29:00,24.1,22.9,29.68,ESE,113,0.0,0.0,95,0.00,,,0.00,WUHU216HW,2013-01-22 11:29:00,
2013-01-22 03:34:00,24.1,22.9,29.68,ESE,113,0.0,0.0,95,0.00,,,0.00,WUHU216HW,2013-01-22 11:34:00,
2013-01-22 03:39:00,24.1,22.9,29.69,ESE,113,0.0,0.0,95,0.00,,,0.00,WUHU216HW,2013-01-22 11:39:00,
2013-01-22 03:44:00,24.1,22.9,29.69,ESE,113,0.0,0.0,95,0.00,,,0.00,WUHU216HW,2013-01-22 11:44:00,
2013-01-22 03:49:00,24.1,22.9,29.69,ESE,113,0.0,0.0,95,0.00,,,0.00,WUHU216HW,2013-01-22 11:49:00,
2013-01-22 03:54:00,24.1,22.9,29.69,ESE,113,0.0,0.0,95,0.00,,,0.00,WUHU216HW,2013-01-22 11:54:00,
2013-01-22 03:59:00,24.1,22.9,29.69,ESE,113,0.0,0.0,95,0.00,,,0.00,WUHU216HW,2013-01-22 11:59:00,
2013-01-22 04:04:00,23.9,22.7,29.69,ESE,113,0.0,0.0,95,0.00,,,0.00,WUHU216HW,2013-01-22 12:04:00,
2013-01-22 04:09:00,23.8,22.5,29.69,ESE,113,0.0,0.0,95,0.00,,,0.00,WUHU216HW,2013-01-22 12:09:00,
2013-01-22 04:14:00,23.8,22.5,29.69,ESE,113,0.0,0.0,95,0.00,,,0.00,WUHU216HW,2013-01-22 12:14:00,
2013-01-22 04:19:00,23.8,22.5,29.69,ESE,113,0.0,0.0,95,0.00,,,0.00,WUHU216HW,2013-01-22 12:19:00,
2013-01-22 04:24:00,23.8,22.5,29.68,ESE,113,0.0,0.0,95,0.00,,,0.00,WUHU216HW,2013-01-22 12:24:00,
2013-01-22 04:29:00,23.8,22.5,29.68,ESE,113,0.0,0.0,95,0.00,,,0.00,WUHU216HW,2013-01-22 12:29:00,
2013-01-22 04:34:00,23.6,22.3,29.68,ESE,113,0.0,0.0,95,0.00,,,0.00,WUHU216HW,2013-01-22 12:34:00,
2013-01-22 04:39:00,23.6,22.3,29.67,ESE,113,0.0,0.0,95,0.00,,,0.00,WUHU216HW,2013-01-22 12:39:00,
2013-01-22 04:44:00,23.6,22.3,29.66,ESE,113,0.0,0.0,95,0.00,,,0.00,WUHU216HW,2013-01-22 12:44:00,
2013-01-22 04:49:00,23.6,22.3,29.67,ESE,113,0.0,0.0,95,0.00,,,0.00,WUHU216HW,2013-01-22 12:49:00,
2013-01-22 04:54:00,23.4,22.1,29.66,ESE,113,0.0,0.0,95,0.00,,,0.00,WUHU216HW,2013-01-22 12:54:00,
2013-01-22 04:59:00,23.4,22.1,29.66,ESE,113,0.0,0.0,95,0.00,,,0.00,WUHU216HW,2013-01-22 12:59:00,
2013-01-22 05:04:00,23.4,22.1,29.65,ESE,113,0.0,0.0,95,0.00,,,0.00,WUHU216HW,2013-01-22 13:04:00,
2013-01-22 05:09:00,23.4,22.1,29.66,ESE,113,0.0,0.0,95,0.00,,,0.00,WUHU216HW,2013-01-22 13:09:00,
2013-01-22 05:14:00,23.4,22.1,29.65,ESE,113,0.0,0.0,95,0.00,,,0.00,WUHU216HW,2013-01-22 13:14:00,
2013-01-22 05:19:00,23.2,22.0,29.65,ESE,113,0.0,0.0,95,0.00,,,0.00,WUHU216HW,2013-01-22 13:19:00,
2013-01-22 05:24:00,23.2,22.0,29.65,ESE,113,0.0,0.0,95,0.00,,,0.00,WUHU216HW,2013-01-22 13:24:00,
2013-01-22 05:29:00,23.2,22.0,29.65,ESE,113,0.0,0.0,95,0.00,,,0.00,WUHU216HW,2013-01-22 13:29:00,
2013-01-22 05:34:00,23.2,22.0,29.65,ESE,113,0.0,0.0,95,0.00,,,0.00,WUHU216HW,2013-01-22 13:34:00,
2013-01-22 05:39:00,23.0,21.8,29.65,ESE,113,0.0,0.0,95,0.00,,,0.00,WUHU216HW,2013-01-22 13:39:00,
2013-01-22 05:44:00,23.0,21.8,29.65,ESE,113,0.0,0.0,95,0.00,,,0.00,WUHU216HW,2013-01-22 13:44:00,
2013-01-22 05:49:00,22.9,21.6,29.65,ESE,113,0.0,0.0,95,0.00,,,0.00,WUHU216HW,2013-01-22 13:49:00,
2013-01-22 05:54:00,22.9,21.6,29.65,ESE,113,0.0,0.0,95,0.00,,,0.00,WUHU216HW,2013-01-22 13:54:00,
2013-01-22 05:59:00,22.7,21.4,29.65,ESE,113,0.0,0.0,95,0.00,,,0.00,WUHU216HW,2013-01-22 13:59:00,
2013-01-22 06:04:00,22.7,21.4,29.65,ESE,113,0.0,0.0,95,0.00,,,0.00,WUHU216HW,2013-01-22 14:04:00,
2013-01-22 06:09:00,22.7,21.4,29.65,ESE,113,0.0,0.0,95,0.00,,,0.00,WUHU216HW,2013-01-22 14:09:00,
2013-01-22 06:14:00,22.7,21.4,29.65,ESE,113,0.0,0.0,95,0.00,,,0.00,WUHU216HW,2013-01-22 14:14:00,
2013-01-22 06:19:00,22.7,21.4,29.65,ESE,113,0.0,0.0,95,0.00,,,0.00,WUHU216HW,2013-01-22 14:19:00,
2013-01-22 06:24:00,22.7,21.4,29.65,ESE,113,0.0,0.0,95,0.00,,,0.00,WUHU216HW,2013-01-22 14:24:00,
2013-01-22 06:29:00,22.7,21.4,29.65,ESE,113,0.0,0.0,95,0.00,,,0.00,WUHU216HW,2013-01-22 14:29:00,
2013-01-22 06:34:00,22.5,21.2,29.65,ESE,113,0.0,0.0,95,0.00,,,0.00,WUHU216HW,2013-01-22 14:34:00,
2013-01-22 06:39:00,22.5,21.2,29.65,ESE,113,0.0,0.0,95,0.00,,,0.00,WUHU216HW,2013-01-22 14:39:00,
2013-01-22 06:44:00,22.5,21.2,29.65,ESE,113,0.0,0.0,95,0.00,,,0.00,WUHU216HW,2013-01-22 14:44:00,
2013-01-22 06:49:00,22.5,21.2,29.65,ESE,113,0.0,0.0,95,0.00,,,0.00,WUHU216HW,2013-01-22 14:49:00,
2013-01-22 06:54:00,22.5,21.2,29.65,ESE,113,0.0,0.0,95,0.00,,,0.00,WUHU216HW,2013-01-22 14:54:00,
2013-01-22 06:59:00,22.5,21.2,29.64,ESE,113,0.0,0.0,95,0.00,,,0.00,WUHU216HW,2013-01-22 14:59:00,
2013-01-22 07:04:00,22.5,21.2,29.64,ESE,113,0.0,0.0,95,0.00,,,0.00,WUHU216HW,2013-01-22 15:04:00,
2013-01-22 07:09:00,22.5,21.2,29.64,ESE,113,0.0,0.0,95,0.00,,,0.00,WUHU216HW,2013-01-22 15:09:00,
2013-01-22 07:14:00,22.3,21.1,29.64,ESE,113,0.0,0.0,95,0.00,,,0.00,WUHU216HW,2013-01-22 15:14:00,
2013-01-22 07:19:00,22.3,21.1,29.64,ESE,113,0.0,0.0,95,0.00,,,0.00,WUHU216HW,2013-01-22 15:19:00,
2013-01-22 07:24:00,22.5,21.2,29.64,ESE,113,0.0,0.0,95,0.00,,,0.00,WUHU216HW,2013-01-22 15:24:00,
2013-01-22 07:29:00,22.5,21.2,29.64,ESE,113,0.0,0.0,95,0.00,,,0.00,WUHU216HW,2013-01-22 15:29:00,
2013-01-22 07:34:00,22.3,21.1,29.64,ESE,113,0.0,0.0,95,0.00,,,0.00,WUHU216HW,2013-01-22 15:34:00,
2013-01-22 07:39:00,22.3,21.1,29.64,ESE,113,0.0,0.0,95,0.00,,,0.00,WUHU216HW,2013-01-22 15:39:00,
2013-01-22 07:44:00,22.3,21.1,29.64,ESE,113,0.0,0.0,95,0.00,,,0.00,WUHU216HW,2013-01-22 15:44:00,
2013-01-22 07:49:00,22.3,21.1,29.65,ESE,113,0.0,0.0,95,0.00,,,0.00,WUHU216HW,2013-01-22 15:49:00,
2013-01-22 07:54:00,22.1,20.9,29.65,ESE,113,0.0,0.0,95,0.00,,,0.00,WUHU216HW,2013-01-22 15:54:00,
2013-01-22 07:59:00,22.0,20.7,29.65,ESE,113,0.0,0.0,95,0.00,,,0.00,WUHU216HW,2013-01-22 15:59:00,
2013-01-22 08:04:00,22.0,20.7,29.65,ESE,113,0.0,0.0,95,0.00,,,0.00,WUHU216HW,2013-01-22 16:04:00,
2013-01-22 08:09:00,22.1,20.9,29.65,ESE,113,0.0,0.0,95,0.00,,,0.00,WUHU216HW,2013-01-22 16:09:00,
2013-01-22 08:14:00,22.1,20.9,29.65,ESE,113,0.0,0.0,95,0.00,,,0.00,WUHU216HW,2013-01-22 16:14:00,
2013-01-22 08:19:00,22.1,20.9,29.65,ESE,113,0.0,0.0,95,0.00,,,0.00,WUHU216HW,2013-01-22 16:19:00,
2013-01-22 08:24:00,22.3,21.1,29.65,ESE,113,0.0,0.0,95,0.00,,,0.00,WUHU216HW,2013-01-22 16:24:00,
2013-01-22 08:29:00,22.3,21.1,29.65,ESE,113,0.0,0.0,95,0.00,,,0.00,WUHU216HW,2013-01-22 16:29:00,
2013-01-22 08:34:00,22.5,21.2,29.65,ESE,113,0.0,0.0,95,0.00,,,0.00,WUHU216HW,2013-01-22 16:34:00,
2013-01-22 08:39:00,22.7,21.4,29.64,ESE,113,0.0,0.0,95,0.00,,,0.00,WUHU216HW,2013-01-22 16:39:00,
2013-01-22 08:44:00,22.7,21.4,29.64,ESE,113,0.0,0.0,95,0.00,,,0.00,WUHU216HW,2013-01-22 16:44:00,
2013-01-22 08:49:00,22.7,21.4,29.64,ESE,113,0.0,0.0,95,0.00,,,0.00,WUHU216HW,2013-01-22 16:49:00,
2013-01-22 08:54:00,22.7,21.4,29.64,ESE,113,0.0,0.0,95,0.00,,,0.00,WUHU216HW,2013-01-22 16:54:00,
2013-01-22 08:59:00,22.9,21.6,29.64,ESE,113,0.0,0.0,95,0.00,,,0.00,WUHU216HW,2013-01-22 16:59:00,
2013-01-22 09:04:00,23.0,21.8,29.63,ESE,113,0.0,0.0,95,0.00,,,0.00,WUHU216HW,2013-01-22 17:04:00,
2013-01-22 09:09:00,23.4,22.1,29.64,ESE,113,0.0,0.0,95,0.00,,,0.00,WUHU216HW,2013-01-22 17:09:00,
2013-01-22 09:14:00,23.6,22.3,29.64,ESE,113,0.0,0.0,95,0.00,,,0.00,WUHU216HW,2013-01-22 17:14:00,
2013-01-22 09:19:00,23.9,22.7,29.64,ESE,113,0.0,0.0,95,0.00,,,0.00,WUHU216HW,2013-01-22 17:19:00,
2013-01-22 09:24:00,24.1,22.9,29.64,ESE,113,0.0,0.0,95,0.00,,,0.00,WUHU216HW,2013-01-22 17:24:00,
2013-01-22 09:29:00,24.3,23.3,29.64,ESE,113,0.0,0.0,96,0.00,,,0.00,WUHU216HW,2013-01-22 17:29:00,
2013-01-22 09:34:00,24.5,23.5,29.64,ESE,113,0.0,0.0,96,0.00,,,0.00,WUHU216HW,2013-01-22 17:34:00,
2013-01-22 09:39:00,24.7,23.7,29.64,ESE,113,0.0,0.0,96,0.00,,,0.00,WUHU216HW,2013-01-22 17:39:00,
2013-01-22 09:44:00,24.8,23.9,29.63,ESE,113,0.0,0.0,96,0.00,,,0.00,WUHU216HW,2013-01-22 17:44:00,
2013-01-22 09:49:00,25.2,24.2,29.63,ESE,113,0.0,0.0,96,0.00,,,0.00,WUHU216HW,2013-01-22 17:49:00,
2013-01-22 09:54:00,25.4,24.4,29.64,ESE,113,0.0,0.0,96,0.00,,,0.00,WUHU216HW,2013-01-22 17:54:00,
2013-01-22 09:59:00,25.6,24.6,29.64,ESE,113,0.0,0.0,96,0.00,,,0.00,WUHU216HW,2013-01-22 17:59:00,
2013-01-22 10:04:00,25.6,24.6,29.64,ESE,113,0.0,0.0,96,0.00,,,0.00,WUHU216HW,2013-01-22 18:04:00,
2013-01-22 10:09:00,25.9,24.9,29.64,ESE,113,0.0,0.0,96,0.00,,,0.00,WUHU216HW,2013-01-22 18:09:00,
2013-01-22 10:14:00,26.1,25.1,29.64,ESE,113,0.0,0.0,96,0.00,,,0.00,WUHU216HW,2013-01-22 18:14:00,
2013-01-22 10:19:00,26.5,25.5,29.64,ESE,113,0.0,0.0,96,0.00,,,0.00,WUHU216HW,2013-01-22 18:19:00,
2013-01-22 10:24:00,26.8,25.8,29.64,ESE,113,0.0,0.0,96,0.00,,,0.00,WUHU216HW,2013-01-22 18:24:00,
2013-01-22 10:29:00,27.4,26.4,29.63,ESE,113,0.0,0.0,96,0.00,,,0.00,WUHU216HW,2013-01-22 18:29:00,
2013-01-22 10:34:00,27.7,26.7,29.63,ESE,113,0.0,0.0,96,0.00,,,0.00,WUHU216HW,2013-01-22 18:34:00,
2013-01-22 10:39:00,28.1,27.1,29.63,ESE,113,0.0,0.0,96,0.00,,,0.00,WUHU216HW,2013-01-22 18:39:00,
2013-01-22 10:44:00,28.4,27.5,29.62,ESE,113,0.0,0.0,96,0.00,,,0.00,WUHU216HW,2013-01-22 18:44:00,
2013-01-22 10:49:00,28.8,28.1,29.62,ESE,113,0.0,0.0,97,0.00,,,0.00,WUHU216HW,2013-01-22 18:49:00,
2013-01-22 10:54:00,29.2,28.5,29.62,ESE,113,0.0,0.0,97,0.00,,,0.00,WUHU216HW,2013-01-22 18:54:00,
2013-01-22 10:59:00,29.7,29.0,29.62,ESE,113,0.0,0.0,97,0.00,,,0.00,WUHU216HW,2013-01-22 18:59:00,
2013-01-22 11:04:00,29.9,29.2,29.62,ESE,113,0.0,0.0,97,0.00,,,0.00,WUHU216HW,2013-01-22 19:04:00,
2013-01-22 11:09:00,30.2,29.5,29.62,ESE,113,0.0,0.0,97,0.00,,,0.00,WUHU216HW,2013-01-22 19:09:00,
2013-01-22 11:14:00,30.4,29.7,29.62,ESE,113,0.0,0.0,97,0.00,,,0.00,WUHU216HW,2013-01-22 19:14:00,
2013-01-22 11:19:00,30.6,29.9,29.62,ESE,113,0.0,0.0,97,0.00,,,0.00,WUHU216HW,2013-01-22 19:19:00,
2013-01-22 11:24:00,30.8,30.1,29.62,ESE,113,0.0,0.0,97,0.00,,,0.00,WUHU216HW,2013-01-22 19:24:00,
2013-01-22 11:29:00,30.8,30.1,29.62,ESE,113,0.0,0.0,97,0.00,,,0.00,WUHU216HW,2013-01-22 19:29:00,
2013-01-22 11:34:00,31.1,30.2,29.62,ESE,113,0.0,0.0,96,0.00,,,0.00,WUHU216HW,2013-01-22 19:34:00,
2013-01-22 11:39:00,31.3,30.3,29.62,ESE,113,0.0,0.0,96,0.00,,,0.00,WUHU216HW,2013-01-22 19:39:00,
2013-01-22 11:44:00,31.5,30.5,29.62,ESE,113,0.0,0.0,96,0.00,,,0.00,WUHU216HW,2013-01-22 19:44:00,
2013-01-22 11:49:00,31.9,30.9,29.62,ESE,113,0.0,0.0,96,0.00,,,0.00,WUHU216HW,2013-01-22 19:49:00,
2013-01-22 11:54:00,32.0,31.1,29.62,ESE,113,0.0,0.0,96,0.00,,,0.00,WUHU216HW,2013-01-22 19:54:00,
2013-01-22 11:59:00,32.2,31.2,29.62,ESE,113,0.0,0.0,96,0.00,,,0.00,WUHU216HW,2013-01-22 19:59:00,
2013-01-22 12:04:00,32.2,31.2,29.61,ESE,113,0.0,0.0,96,0.00,,,0.00,WUHU216HW,2013-01-22 20:04:00,
2013-01-22 12:09:00,32.6,31.6,29.62,ESE,113,0.0,0.0,96,0.00,,,0.00,WUHU216HW,2013-01-22 20:09:00,
2013-01-22 12:14:00,32.8,31.7,29.62,ESE,113,0.0,0.0,96,0.00,,,0.00,WUHU216HW,2013-01-22 20:14:00,
2013-01-22 12:19:00,32.9,31.9,29.61,ESE,113,0.0,0.0,96,0.00,,,0.00,WUHU216HW,2013-01-22 20:19:00,
2013-01-22 12:24:00,32.9,31.9,29.61,ESE,113,0.0,0.7,96,0.00,,,0.00,WUHU216HW,2013-01-22 20:24:00,
2013-01-22 12:29:00,33.1,32.0,29.60,ESE,113,0.0,0.7,96,0.00,,,0.00,WUHU216HW,2013-01-22 20:29:00,
2013-01-22 12:34:00,33.5,32.4,29.60,ESE,113,0.0,0.0,96,0.00,,,0.00,WUHU216HW,2013-01-22 20:34:00,
2013-01-22 12:39:00,33.7,32.6,29.60,ESE,113,0.0,0.0,96,0.00,,,0.00,WUHU216HW,2013-01-22 20:39:00,
2013-01-22 12:44:00,33.8,32.8,29.60,ESE,113,0.0,0.0,96,0.00,,,0.00,WUHU216HW,2013-01-22 20:44:00,
2013-01-22 12:49:00,34.0,32.9,29.60,South,180,0.0,0.0,96,0.00,,,0.00,WUHU216HW,2013-01-22 20:49:00,
2013-01-22 12:54:00,34.2,33.1,29.60,South,180,0.0,0.0,96,0.00,,,0.00,WUHU216HW,2013-01-22 20:54:00,
2013-01-22 12:59:00,34.2,33.1,29.60,South,180,0.0,0.0,96,0.00,,,0.00,WUHU216HW,2013-01-22 20:59:00,
2013-01-22 13:04:00,34.6,33.5,29.59,South,180,0.0,0.0,96,0.00,,,0.00,WUHU216HW,2013-01-22 21:04:00,
2013-01-22 13:09:00,34.6,33.5,29.60,South,180,0.0,0.4,96,0.00,,,0.00,WUHU216HW,2013-01-22 21:09:00,
2013-01-22 13:14:00,34.6,33.5,29.59,South,180,0.4,0.4,96,0.00,,,0.00,WUHU216HW,2013-01-22 21:14:00,
2013-01-22 13:19:00,34.4,33.3,29.59,South,180,0.0,0.4,96,0.00,,,0.00,WUHU216HW,2013-01-22 21:19:00,
2013-01-22 13:24:00,34.6,33.5,29.58,SSW,203,0.0,0.4,96,0.00,,,0.00,WUHU216HW,2013-01-22 21:24:00,
2013-01-22 13:29:00,34.4,33.3,29.58,SSW,203,0.0,0.0,96,0.00,,,0.00,WUHU216HW,2013-01-22 21:29:00,
2013-01-22 13:31:00,34.4,33.3,29.58,SSW,203,0.0,0.0,96,0.00,,,0.00,WUHU216HW,2013-01-22 21:31:00,
2013-01-22 13:36:00,34.4,33.3,29.58,SSW,203,0.0,0.0,96,0.00,,,0.00,WUHU216HW,2013-01-22 21:36:00,
2013-01-22 13:41:00,34.4,33.3,29.58,SSW,203,0.0,0.0,96,0.00,,,0.00,WUHU216HW,2013-01-22 21:41:00,
2013-01-22 13:46:00,34.4,33.3,29.57,SSW,203,0.0,0.0,96,0.00,,,0.00,WUHU216HW,2013-01-22 21:46:00,
2013-01-22 13:51:00,34.9,33.8,29.57,SSW,203,0.0,0.0,96,0.00,,,0.00,WUHU216HW,2013-01-22 21:51:00,
2013-01-22 13:56:00,35.3,34.5,29.57,SSW,203,0.0,0.0,97,0.00,,,0.00,WUHU216HW,2013-01-22 21:56:00,
2013-01-22 14:01:00,35.5,34.7,29.56,SSW,203,0.0,0.0,97,0.00,,,0.00,WUHU216HW,2013-01-22 22:01:00,
2013-01-22 14:06:00,35.5,34.7,29.57,SW,225,0.7,1.1,97,0.00,,,0.00,WUHU216HW,2013-01-22 22:06:00,
2013-01-22 14:11:00,35.3,34.5,29.56,North,0,1.1,1.1,97,0.00,,,0.00,WUHU216HW,2013-01-22 22:11:00,
2013-01-22 14:16:00,35.1,34.0,29.55,North,0,0.0,1.1,96,0.00,,,0.00,WUHU216HW,2013-01-22 22:16:00,
2013-01-22 14:21:00,35.1,34.0,29.56,SW,225,1.8,1.8,96,0.00,,,0.00,WUHU216HW,2013-01-22 22:21:00,
2013-01-22 14:26:00,34.9,33.6,29.57,SW,225,0.7,1.8,95,0.00,,,0.00,WUHU216HW,2013-01-22 22:26:00,
2013-01-22 14:31:00,34.7,33.4,29.57,SW,225,0.0,1.8,95,0.00,,,0.00,WUHU216HW,2013-01-22 22:31:00,
2013-01-22 14:36:00,34.7,33.7,29.56,SW,225,0.0,0.7,96,0.00,,,0.00,WUHU216HW,2013-01-22 22:36:00,
2013-01-22 14:41:00,34.7,33.4,29.55,North,0,0.4,0.7,95,0.00,,,0.00,WUHU216HW,2013-01-22 22:41:00,
2013-01-22 14:46:00,34.9,33.8,29.55,NNE,23,0.0,1.6,96,0.00,,,0.00,WUHU216HW,2013-01-22 22:46:00,
2013-01-22 14:51:00,34.9,33.6,29.55,SW,225,0.0,1.6,95,0.00,,,0.00,WUHU216HW,2013-01-22 22:51:00,
2013-01-22 14:56:00,34.9,33.6,29.55,WSW,248,0.4,1.1,95,0.00,,,0.00,WUHU216HW,2013-01-22 22:56:00,
2013-01-22 15:01:00,35.1,34.0,29.55,SW,225,0.7,1.1,96,0.00,,,0.00,WUHU216HW,2013-01-22 23:01:00,
2013-01-22 15:06:00,34.9,33.6,29.54,NNE,23,0.7,1.1,95,0.00,,,0.00,WUHU216HW,2013-01-22 23:06:00,
2013-01-22 15:11:00,34.9,33.8,29.55,WSW,248,1.1,1.6,96,0.00,,,0.00,WUHU216HW,2013-01-22 23:11:00,
2013-01-22 15:16:00,34.9,33.6,29.55,SW,225,0.4,1.6,95,0.00,,,0.00,WUHU216HW,2013-01-22 23:16:00,
2013-01-22 15:21:00,34.7,33.4,29.55,SW,225,0.0,1.3,95,0.00,,,0.00,WUHU216HW,2013-01-22 23:21:00,
2013-01-22 15:26:00,34.6,33.2,29.55,SSE,158,0.9,1.1,95,0.00,,,0.00,WUHU216HW,2013-01-22 23:26:00,
2013-01-22 15:31:00,34.4,33.0,29.55,SSE,158,0.4,1.1,95,0.00,,,0.00,WUHU216HW,2013-01-22 23:31:00,
2013-01-22 15:36:00,34.4,33.0,29.54,NE,45,0.9,1.1,95,0.00,,,0.00,WUHU216HW,2013-01-22 23:36:00,
2013-01-22 15:41:00,34.4,33.0,29.54,NE,45,1.1,1.8,95,0.00,,,0.00,WUHU216HW,2013-01-22 23:41:00,
2013-01-22 15:46:00,34.6,33.2,29.53,NE,45,0.0,1.8,95,0.00,,,0.00,WUHU216HW,2013-01-22 23:46:00,
2013-01-22 15:51:00,34.4,33.0,29.53,NE,45,0.0,1.3,95,0.00,,,0.00,WUHU216HW,2013-01-22 23:51:00,
2013-01-22 15:56:00,34.4,33.0,29.53,SSW,203,0.0,1.1,95,0.00,,,0.00,WUHU216HW,2013-01-22 23:56:00,
2013-01-22 16:01:00,34.4,33.0,29.53,SSW,203,0.0,1.1,95,0.00,,,0.00,WUHU216HW,2013-01-23 00:01:00,
2013-01-22 16:06:00,34.2,32.9,29.52,NE,45,1.1,1.1,95,0.00,,,0.00,WUHU216HW,2013-01-23 00:06:00,
2013-01-22 16:11:00,34.2,32.9,29.52,NNE,23,0.0,1.1,95,0.00,,,0.00,WUHU216HW,2013-01-23 00:11:00,
2013-01-22 16:17:00,34.2,32.9,29.52,SW,225,0.0,1.1,95,0.00,,,0.00,WUHU216HW,2013-01-23 00:17:00,
2013-01-22 16:22:00,34.0,32.7,29.52,SW,225,0.7,1.1,95,0.00,,,0.00,WUHU216HW,2013-01-23 00:22:00,
2013-01-22 16:27:00,33.8,32.5,29.53,SW,225,0.0,1.1,95,0.00,,,0.00,WUHU216HW,2013-01-23 00:27:00,
2013-01-22 16:32:00,33.8,32.5,29.52,SW,225,0.0,0.9,95,0.00,,,0.00,WUHU216HW,2013-01-23 00:32:00,
2013-01-22 16:37:00,33.7,32.3,29.53,SW,225,0.0,0.0,95,0.00,,,0.00,WUHU216HW,2013-01-23 00:37:00,
2013-01-22 16:42:00,33.5,32.1,29.52,SW,225,0.9,0.9,95,0.00,,,0.00,WUHU216HW,2013-01-23 00:42:00,
2013-01-22 16:47:00,33.5,32.1,29.52,East,90,0.0,0.9,95,0.00,,,0.00,WUHU216HW,2013-01-23 00:47:00,
2013-01-22 16:52:00,33.5,32.1,29.52,East,90,0.0,0.9,95,0.00,,,0.00,WUHU216HW,2013-01-23 00:52:00,
2013-01-22 16:57:00,33.3,32.2,29.52,East,90,0.7,0.7,96,0.00,,,0.00,WUHU216HW,2013-01-23 00:57:00,
2013-01-22 17:02:00,33.1,32.0,29.53,WSW,248,0.0,0.9,96,0.00,,,0.00,WUHU216HW,2013-01-23 01:02:00,
2013-01-22 17:07:00,33.1,32.0,29.53,WSW,248,0.0,0.9,96,0.00,,,0.00,WUHU216HW,2013-01-23 01:07:00,
2013-01-22 17:12:00,32.9,31.7,29.53,NNE,23,0.2,1.3,95,0.00,,,0.00,WUHU216HW,2013-01-23 01:12:00,
2013-01-22 17:17:00,32.9,31.9,29.53,NNE,23,0.0,1.3,96,0.00,,,0.00,WUHU216HW,2013-01-23 01:17:00,
2013-01-22 17:22:00,32.8,31.7,29.53,NNE,23,0.0,0.0,96,0.00,,,0.00,WUHU216HW,2013-01-23 01:22:00,
2013-01-22 17:27:00,32.8,31.7,29.52,NNE,23,0.7,0.7,96,0.00,,,0.00,WUHU216HW,2013-01-23 01:27:00,
2013-01-22 17:32:00,32.8,31.7,29.52,NNE,23,0.0,0.7,96,0.00,,,0.00,WUHU216HW,2013-01-23 01:32:00,
2013-01-22 17:37:00,32.6,31.6,29.52,NNE,23,0.7,1.3,96,0.00,,,0.00,WUHU216HW,2013-01-23 01:37:00,
2013-01-22 17:42:00,32.6,31.6,29.52,NE,45,0.0,1.3,96,0.00,,,0.00,WUHU216HW,2013-01-23 01:42:00,
2013-01-22 17:47:00,32.6,31.6,29.51,NNE,23,0.0,1.1,96,0.00,,,0.00,WUHU216HW,2013-01-23 01:47:00,
2013-01-22 17:52:00,32.6,31.6,29.51,NNE,23,0.0,0.4,96,0.00,,,0.00,WUHU216HW,2013-01-23 01:52:00,
2013-01-22 17:57:00,32.6,31.6,29.52,SSW,203,0.0,1.1,96,0.00,,,0.00,WUHU216HW,2013-01-23 01:57:00,
2013-01-22 18:02:00,32.6,31.6,29.52,SSW,203,0.0,1.1,96,0.00,,,0.00,WUHU216HW,2013-01-23 02:02:00,
2013-01-22 18:07:00,32.6,31.6,29.52,SSW,203,0.0,0.7,96,0.00,,,0.00,WUHU216HW,2013-01-23 02:07:00,
2013-01-22 18:12:00,32.6,31.6,29.52,SE,135,0.0,0.0,96,0.00,,,0.00,WUHU216HW,2013-01-23 02:12:00,
2013-01-22 18:17:00,32.6,31.6,29.52,SE,135,0.0,0.0,96,0.00,,,0.00,WUHU216HW,2013-01-23 02:17:00,
2013-01-22 18:22:00,32.6,31.6,29.51,SE,135,0.0,0.4,96,0.00,,,0.00,WUHU216HW,2013-01-23 02:22:00,
2013-01-22 18:27:00,32.4,31.4,29.51,SE,135,0.0,0.4,96,0.00,,,0.00,WUHU216HW,2013-01-23 02:27:00,
2013-01-22 18:33:00,32.4,31.4,29.51,SE,135,0.0,0.0,96,0.00,,,0.00,WUHU216HW,2013-01-23 02:33:00,
2013-01-22 18:38:00,32.4,31.4,29.52,SW,225,0.7,1.3,96,0.00,,,0.00,WUHU216HW,2013-01-23 02:38:00,
2013-01-22 18:43:00,32.4,31.4,29.51,WSW,248,0.0,1.3,96,0.00,,,0.00,WUHU216HW,2013-01-23 02:43:00,
2013-01-22 18:48:00,32.4,31.4,29.52,WSW,248,0.0,0.4,96,0.00,,,0.00,WUHU216HW,2013-01-23 02:48:00,
2013-01-22 18:53:00,32.4,31.4,29.52,East,90,0.0,1.1,96,0.00,,,0.00,WUHU216HW,2013-01-23 02:53:00,
2013-01-22 18:58:00,33.3,32.2,29.51,East,90,0.0,1.1,96,0.00,,,0.00,WUHU216HW,2013-01-23 02:58:00,
2013-01-22 19:03:00,34.4,33.3,29.51,East,90,0.0,0.4,96,0.00,,,0.00,WUHU216HW,2013-01-23 03:03:00,
2013-01-22 19:08:00,35.6,34.8,29.51,SW,225,0.0,0.9,97,0.00,,,0.00,WUHU216HW,2013-01-23 03:08:00,
2013-01-22 19:13:00,35.6,34.8,29.51,SW,225,0.0,0.9,97,0.00,,,0.00,WUHU216HW,2013-01-23 03:13:00,
2013-01-22 19:18:00,35.6,34.6,29.50,ENE,68,1.3,1.3,96,0.00,,,0.00,WUHU216HW,2013-01-23 03:18:00,
2013-01-22 19:23:00,35.1,33.8,29.50,ENE,68,0.0,1.6,95,0.00,,,0.00,WUHU216HW,2013-01-23 03:23:00,
2013-01-22 19:28:00,34.6,33.2,29.50,NW,315,0.0,1.6,95,0.00,,,0.00,WUHU216HW,2013-01-23 03:28:00,
2013-01-22 19:33:00,34.0,32.7,29.50,NNW,338,0.0,0.4,95,0.00,,,0.00,WUHU216HW,2013-01-23 03:33:00,
2013-01-22 19:38:00,33.5,32.1,29.50,NW,315,0.0,0.0,95,0.00,,,0.00,WUHU216HW,2013-01-23 03:38:00,
2013-01-22 19:43:00,33.3,32.0,29.50,NW,315,0.0,0.0,95,0.00,,,0.00,WUHU216HW,2013-01-23 03:43:00,
2013-01-22 19:48:00,33.1,31.8,29.50,NW,315,0.0,0.0,95,0.00,,,0.00,WUHU216HW,2013-01-23 03:48:00,
2013-01-22 19:53:00,33.1,31.8,29.50,NW,315,0.0,0.0,95,0.00,,,0.00,WUHU216HW,2013-01-23 03:53:00,
2013-01-22 19:58:00,33.1,31.8,29.50,NW,315,0.0,0.0,95,0.00,,,0.00,WUHU216HW,2013-01-23 03:58:00,
2013-01-22 20:03:00,32.9,31.7,29.49,North,0,0.4,0.7,95,0.00,,,0.00,WUHU216HW,2013-01-23 04:03:00,
2013-01-22 20:08:00,32.8,31.5,29.49,North,0,0.0,0.7,95,0.00,,,0.00,WUHU216HW,2013-01-23 04:08:00,
2013-01-22 20:13:00,32.8,31.5,29.49,WSW,248,1.6,1.8,95,0.00,,,0.00,WUHU216HW,2013-01-23 04:13:00,
2013-01-22 20:18:00,32.6,31.3,29.50,North,0,0.0,1.8,95,0.00,,,0.00,WUHU216HW,2013-01-23 04:18:00,
2013-01-22 20:23:00,32.6,31.6,29.50,WSW,248,0.0,1.6,96,0.00,,,0.00,WUHU216HW,2013-01-23 04:23:00,
2013-01-22 20:28:00,32.8,31.7,29.50,SW,225,0.2,1.1,96,0.00,,,0.00,WUHU216HW,2013-01-23 04:28:00,
2013-01-22 20:33:00,32.8,31.7,29.50,SW,225,0.0,1.1,96,0.00,,,0.00,WUHU216HW,2013-01-23 04:33:00,
2013-01-22 20:38:00,32.6,31.6,29.50,SW,225,0.0,0.2,96,0.00,,,0.00,WUHU216HW,2013-01-23 04:38:00,
2013-01-22 20:43:00,32.6,31.6,29.50,ESE,113,0.0,0.7,96,0.00,,,0.00,WUHU216HW,2013-01-23 04:43:00,
2013-01-22 20:48:00,32.6,31.6,29.51,SW,225,1.3,1.8,96,0.00,,,0.00,WUHU216HW,2013-01-23 04:48:00,
2013-01-22 20:53:00,32.6,31.6,29.51,SSW,203,0.0,1.8,96,0.00,,,0.00,WUHU216HW,2013-01-23 04:53:00,
2013-01-22 20:58:00,32.6,31.6,29.50,ESE,113,0.0,1.3,96,0.00,,,0.00,WUHU216HW,2013-01-23 04:58:00,
2013-01-22 21:02:00,32.6,31.6,29.50,NNE,23,2.2,2.2,96,0.00,,,0.00,WUHU216HW,2013-01-23 05:02:00,
2013-01-22 21:03:00,32.6,31.6,29.51,North,0,0.2,2.2,96,0.00,,,0.00,WUHU216HW,2013-01-23 05:03:00,
2013-01-22 21:08:00,32.6,31.6,29.50,NNE,23,0.0,2.2,96,0.00,,,0.00,WUHU216HW,2013-01-23 05:08:00,
2013-01-22 21:13:00,32.4,31.4,29.50,NNE,23,0.2,1.8,96,0.00,,,0.00,WUHU216HW,2013-01-23 05:13:00,
2013-01-22 21:18:00,32.4,31.4,29.50,NNE,23,0.0,0.9,96,0.00,,,0.00,WUHU216HW,2013-01-23 05:18:00,
2013-01-22 21:23:00,32.6,31.6,29.49,NNE,23,0.9,0.9,96,0.00,,,0.00,WUHU216HW,2013-01-23 05:23:00,
2013-01-22 21:28:00,32.6,31.6,29.49,NNE,23,0.0,0.9,96,0.00,,,0.00,WUHU216HW,2013-01-23 05:28:00,
2013-01-22 21:33:00,32.6,31.6,29.49,NNE,23,0.0,0.7,96,0.00,,,0.00,WUHU216HW,2013-01-23 05:33:00,
2013-01-22 21:38:00,32.6,31.6,29.49,NNE,23,0.0,0.4,96,0.00,,,0.00,WUHU216HW,2013-01-23 05:38:00,
2013-01-22 21:43:00,32.6,31.6,29.48,ENE,68,0.4,0.9,96,0.00,,,0.00,WUHU216HW,2013-01-23 05:43:00,
2013-01-22 21:48:00,32.6,31.6,29.48,ENE,68,0.0,0.9,96,0.00,,,0.00,WUHU216HW,2013-01-23 05:48:00,
2013-01-22 21:53:00,32.6,31.6,29.48,ENE,68,0.0,0.7,96,0.00,,,0.00,WUHU216HW,2013-01-23 05:53:00,
2013-01-22 21:58:00,32.6,31.6,29.47,ENE,68,0.0,0.0,96,0.00,,,0.00,WUHU216HW,2013-01-23 05:58:00,
2013-01-22 22:03:00,32.6,31.6,29.47,ENE,68,0.0,0.0,96,0.00,,,0.00,WUHU216HW,2013-01-23 06:03:00,
2013-01-22 22:08:00,32.6,31.6,29.47,ENE,68,0.0,0.0,96,0.00,,,0.00,WUHU216HW,2013-01-23 06:08:00,
2013-01-22 22:13:00,32.6,31.6,29.47,ENE,68,0.0,0.0,96,0.00,,,0.00,WUHU216HW,2013-01-23 06:13:00,
2013-01-22 22:18:00,32.6,31.6,29.47,NE,45,0.0,0.0,96,0.00,,,0.00,WUHU216HW,2013-01-23 06:18:00,
2013-01-22 22:23:00,32.6,31.6,29.47,NW,315,0.0,0.0,96,0.00,,,0.00,WUHU216HW,2013-01-23 06:23:00,
2013-01-22 22:28:00,32.6,31.6,29.47,NW,315,0.0,0.0,96,0.00,,,0.00,WUHU216HW,2013-01-23 06:28:00,
2013-01-22 22:33:00,32.8,31.7,29.47,NW,315,0.0,0.4,96,0.00,,,0.00,WUHU216HW,2013-01-23 06:33:00,
2013-01-22 22:38:00,32.8,31.7,29.47,NW,315,0.0,0.4,96,0.00,,,0.00,WUHU216HW,2013-01-23 06:38:00,
2013-01-22 22:43:00,32.8,31.7,29.47,NW,315,0.0,0.0,96,0.00,,,0.00,WUHU216HW,2013-01-23 06:43:00,
2013-01-22 22:48:00,32.8,31.7,29.46,NW,315,0.2,0.4,96,0.00,,,0.00,WUHU216HW,2013-01-23 06:48:00,
2013-01-22 22:53:00,32.8,31.7,29.47,NW,315,0.0,0.4,96,0.00,,,0.00,WUHU216HW,2013-01-23 06:53:00,
2013-01-22 22:58:00,32.8,31.7,29.47,NW,315,0.0,0.2,96,0.00,,,0.00,WUHU216HW,2013-01-23 06:58:00,
2013-01-22 23:03:00,32.8,31.7,29.47,NW,315,0.0,0.0,96,0.00,,,0.00,WUHU216HW,2013-01-23 07:03:00,
2013-01-22 23:08:00,32.8,31.7,29.48,NW,315,0.0,0.0,96,0.00,,,0.00,WUHU216HW,2013-01-23 07:08:00,
2013-01-22 23:13:00,32.8,31.7,29.48,NW,315,0.0,0.0,96,0.00,,,0.00,WUHU216HW,2013-01-23 07:13:00,
2013-01-22 23:18:00,32.8,31.7,29.48,NW,315,0.0,0.0,96,0.00,,,0.00,WUHU216HW,2013-01-23 07:18:00,
2013-01-22 23:23:00,32.8,31.7,29.48,NW,315,0.0,0.2,96,0.00,,,0.00,WUHU216HW,2013-01-23 07:23:00,
2013-01-22 23:28:00,32.8,31.7,29.49,NW,315,0.0,0.2,96,0.00,,,0.00,WUHU216HW,2013-01-23 07:28:00,
2013-01-22 23:33:00,32.8,31.7,29.49,NW,315,0.0,0.0,96,0.00,,,0.00,WUHU216HW,2013-01-23 07:33:00,
2013-01-22 23:38:00,32.8,31.7,29.49,NW,315,0.0,0.0,96,0.00,,,0.00,WUHU216HW,2013-01-23 07:38:00,
2013-01-22 23:43:00,32.8,31.7,29.49,NW,315,0.0,0.4,96,0.00,,,0.00,WUHU216HW,2013-01-23 07:43:00,
2013-01-22 23:48:00,32.8,31.7,29.48,NW,315,0.0,0.4,96,0.00,,,0.00,WUHU216HW,2013-01-23 07:48:00,
2013-01-22 23:53:00,32.8,31.7,29.48,NNE,23,0.0,1.1,96,0.00,,,0.00,WUHU216HW,2013-01-23 07:53:00,
2013-01-22 23:58:00,32.8,31.7,29.48,NNE,23,0.7,1.1,96,0.00,,,0.00,WUHU216HW,2013-01-23 07:58:00,